Dewpoint
56 56 56 57 57 58 58 58 58 58 58 58 58 58 59 59 59 53 27 39 62 73 70 59 61 62 62 54 55 51 36 27 26 27 30 37 40 47 50 52 55 55 56 55 64
56 55 55 56 57 57 57 57 57 57 58 58 58 58 59 59 47 30 60 72 73 74 56 56 54 59 51 44 44 43 31 26 25 27 28 29 37 42 49 50 54 56 61 60 64
55 55 55 55 55 56 56 57 57 57 57 57 58 58 59 58 37 34 72 73 72 70 52 47 46 49 37 30 33 34 29 25 25 26 27 30 32 39 46 48 50 54 60 61 62
55 55 55 55 54 55 56 56 56 56 57 57 58 59 59 49 25 41 73 73 73 54 49 37 42 34 27 27 26 29 27 23 22 23 32 33 34 37 43 43 49 52 59 60 60
54 54 54 54 54 54 55 56 56 56 56 57 58 59 46 13 9 63 74 72 62 44 39 30 30 27 28 26 26 26 25 23 21 25 37 38 36 37 40 42 49 55 58 59 58
54 54 54 54 55 55 55 55 55 56 56 57 58 58 33 8 32 57 57 58 49 40 30 29 24 17 21 25 25 26 24 23 23 31 41 38 37 41 47 48 52 56 57 58 58
53 54 54 54 54 55 55 54 55 56 57 57 58 51 21 9 31 48 52 51 44 35 24 17 14 16 22 24 23 22 23 25 27 28 29 39 34 38 43 52 54 56 57 58 61
53 54 54 54 54 54 54 54 55 56 58 59 58 44 10 14 22 36 37 34 32 32 19 20 22 22 22 23 21 21 25 22 26 27 29 27 23 27 45 51 54 56 56 59 62
53 53 54 54 54 54 53 53 55 56 58 58 48 29 9 36 19 17 27 22 25 24 26 22 23 21 20 17 22 24 19 21 19 23 25 22 21 28 44 49 54 58 59 60 63
53 53 53 53 53 53 53 54 55 54 55 50 43 31 18 7 18 22 26 26 19 21 22 22 21 18 16 14 14 19 19 18 18 20 22 21 19 28 38 46 52 56 61 61 61
53 53 53 53 53 52 48 34 31 34 28 18 23 17 10 17 23 21 22 26 24 19 15 21 16 15 15 17 18 18 19 18 19 17 19 23 21 31 41 43 50 55 59 61 61
52 53 53 53 52 52 45 26 25 25 22 18 18 20 21 22 18 18 21 20 19 14 13 17 14 14 17 18 17 18 18 16 16 17 20 21 23 40 48 47 46 53 57 59 60
52 53 52 52 51 42 28 29 27 25 25 15 17 12 10 18 13 11 19 17 16 14 12 13 10 16 16 16 17 16 15 15 13 16 19 22 21 36 45 53 51 49 54 58 60
52 52 52 50 39 26 27 30 21 28 16 9 8 11 15 13 10 10 14 17 15 13 13 13 11 9 12 12 12 13 12 13 14 14 14 21 15 33 41 50 54 52 53 57 60
52 52 52 50 35 22 26 21 23 29 6 5 6 16 14 12 6 10 12 13 16 14 15 15 13 11 9 8 12 14 15 16 19 17 18 18 13 26 46 42 51 55 57 57 60
51 51 51 40 36 29 26 23 29 16 7 3 9 8 10 12 8 11 14 15 14 14 16 14 13 13 10 11 14 14 16 18 20 14 15 19 16 16 21 30 42 57 58 58 60
50 50 49 38 17 29 28 22 18 11 9 1 4 9 9 9 9 8 13 15 12 17 20 16 14 11 12 12 14 15 16 14 14 10 11 24 16 21 21 36 47 51 58 60 61
49 49 46 39 39 36 24 21 19 12 8 11 10 9 9 11 10 8 9 11 14 15 12 16 14 14 13 13 14 17 16 14 19 11 11 25 15 18 24 38 53 54 57 58 58
49 30 35 39 42 40 19 17 18 16 12 7 7 8 8 13 13 11 11 8 10 14 17 14 14 10 10 10 10 16 18 14 18 17 10 9 16 25 24 36 48 54 57 58 54
34 31 31 41 42 31 12 18 17 18 16 14 9 10 11 13 15 15 12 10 8 10 14 16 15 9 10 13 17 17 17 16 14 20 18 13 19 18 31 34 50 53 57 60 59
34 22 40 41 35 17 8 13 14 17 18 14 15 15 14 15 15 14 13 21 20 11 14 12 16 13 14 16 13 16 15 18 14 20 15 14 15 24 26 35 46 52 54 59 59
28 15 39 35 17 7 5 13 25 15 16 16 16 14 14 12 16 17 16 21 26 25 14 14 14 15 12 12 18 16 17 20 15 25 19 19 14 16 20 36 49 50 55 58 57
19 22 38 35 12 9 8 11 14 13 14 14 13 14 13 16 19 19 18 20 24 25 26 25 16 16 16 13 17 15 14 19 22 30 26 19 16 29 39 43 49 54 57 59 54
29 28 35 29 26 26 17 14 10 14 13 13 15 15 18 19 19 22 16 17 21 29 49 37 27 27 10 18 16 19 14 16 22 19 19 20 21 37 43 44 48 52 58 59 57
31 31 41 30 23 22 25 26 24 21 22 20 20 16 15 19 18 18 19 17 19 40 38 36 34 28 22 21 17 17 13 14 20 22 23 26 24 44 48 49 50 52 57 59 59
37 39 39 37 37 35 32 31 29 26 27 23 21 18 19 20 21 19 18 23 21 25 31 36 32 34 27 21 23 19 21 22 23 23 27 29 35 48 50 52 52 53 52 55 60
30 40 40 39 35 33 30 30 28 29 30 25 23 23 24 24 20 22 26 33 34 31 27 30 32 31 25 26 24 21 24 24 26 31 34 27 46 50 52 53 58 58 57 56 54
Lifted_Index
15 15 14 14 14 13 13 13 13 13 13 13 13 12 12 11 10 9 7 4 1 -2 -2 -1 -3 -4 -3 -2 -1 -1 0 1 2 2 1 0 -1 -2 -3 -4 -4 -4 -5 -5 -5
15 15 15 14 14 13 13 13 13 13 13 12 12 12 12 11 10 8 6 3 -0 -1 -0 -0 -1 -2 -2 -0 -0 0 1 1 2 2 2 1 -0 -1 -3 -4 -4 -5 -5 -5 -5
16 16 16 15 15 14 13 13 13 12 12 12 12 12 11 10 8 6 3 1 -1 0 2 2 1 0 1 1 1 1 1 2 2 2 2 1 0 -1 -3 -3 -4 -5 -5 -5 -6
16 16 16 16 15 14 13 13 12 12 12 12 12 11 10 9 7 4 1 -0 1 2 4 4 3 2 2 2 2 2 1 2 2 2 1 1 0 -1 -2 -3 -3 -4 -5 -5 -5
17 17 16 16 15 14 14 13 12 12 12 12 12 11 10 8 6 3 1 1 2 5 6 6 5 4 3 3 2 2 2 1 2 1 1 0 -0 -1 -2 -2 -3 -4 -5 -5 -5
16 16 16 16 15 14 13 13 12 11 11 11 11 11 9 7 6 4 2 3 4 6 7 7 7 5 4 3 3 2 2 1 1 1 0 -0 -0 -1 -2 -3 -4 -4 -5 -5 -5
16 16 16 16 15 14 13 12 11 11 10 10 10 10 8 8 7 6 5 5 6 7 8 8 8 7 5 4 3 3 2 1 1 1 1 0 -0 -1 -2 -3 -4 -5 -5 -5 -5
16 16 15 15 15 14 13 12 11 10 10 9 9 8 7 8 8 8 7 7 7 8 9 9 8 7 6 5 4 2 1 0 0 1 1 1 0 -0 -2 -3 -4 -5 -5 -5 -5
15 15 15 15 14 14 13 12 11 10 9 8 7 6 6 7 8 8 8 8 8 8 8 8 8 7 6 5 3 1 1 -0 0 1 1 1 1 -0 -1 -3 -4 -5 -5 -5 -5
15 15 15 14 14 13 12 11 10 8 7 6 6 5 5 6 7 7 7 8 8 8 8 7 7 6 5 4 3 2 1 1 1 1 1 1 0 0 -1 -2 -4 -5 -5 -5 -5
15 15 15 14 14 13 11 10 9 7 6 5 5 4 4 5 6 6 6 6 7 7 6 6 6 5 5 4 4 3 3 3 2 1 1 0 0 -0 -1 -2 -3 -4 -5 -5 -5
15 15 14 14 13 12 11 9 8 7 6 5 4 4 4 4 4 5 5 5 5 5 5 5 5 4 5 5 5 4 4 3 3 1 1 0 -0 -1 -2 -2 -3 -4 -5 -5 -5
14 14 14 14 13 12 10 9 9 8 6 4 4 3 3 3 3 4 5 4 4 4 4 4 4 4 5 5 5 4 4 3 3 2 1 0 -0 -1 -2 -3 -3 -3 -4 -5 -5
14 14 14 13 12 11 10 9 9 7 5 3 3 3 3 3 2 3 4 4 3 3 3 3 3 4 4 4 4 4 4 4 3 2 0 -0 -0 -1 -2 -3 -4 -4 -4 -5 -5
13 13 13 13 11 11 10 9 8 6 3 3 3 4 3 2 2 2 3 3 3 3 2 3 3 3 3 4 4 4 4 4 3 2 0 -0 -0 -1 -2 -2 -4 -4 -5 -5 -5
13 13 13 12 11 11 10 9 7 4 3 3 3 3 3 2 2 2 2 3 3 2 2 3 3 3 3 3 4 4 3 3 2 1 -0 -0 -0 -1 -1 -1 -3 -5 -5 -5 -5
13 13 12 12 11 11 10 7 4 3 3 3 3 3 3 2 2 2 2 2 2 2 2 2 2 2 3 3 3 3 2 1 0 -0 -0 -0 -0 -0 -0 -1 -2 -4 -5 -5 -4
13 12 11 11 10 10 8 5 3 3 3 3 3 3 2 2 2 2 2 2 2 2 1 1 1 2 2 2 2 2 1 0 -1 -1 -1 -0 -0 0 1 -0 -2 -4 -5 -4 -4
12 11 10 9 9 8 6 4 3 3 4 3 3 2 2 2 2 2 2 2 2 2 1 0 0 1 2 2 2 1 1 0 -0 -1 -1 -1 -0 0 1 -0 -2 -4 -5 -5 -4
10 9 8 8 8 7 6 4 4 4 4 3 3 2 1 2 2 2 2 2 2 2 1 0 0 1 1 2 2 1 1 0 -0 -1 -1 -1 -1 -0 0 -1 -3 -4 -5 -5 -5
9 8 7 7 7 6 5 4 4 4 4 4 3 2 2 2 2 2 1 2 2 2 1 1 0 0 1 1 1 1 1 1 -0 -0 -1 -1 -1 -0 -0 -1 -3 -4 -5 -6 -6
8 7 6 7 7 6 5 5 5 4 4 4 4 4 3 3 2 2 2 2 2 2 2 1 1 0 0 0 1 1 1 1 0 -0 -0 -1 -1 -0 -0 -1 -3 -5 -6 -6 -5
8 6 6 6 6 5 5 5 5 5 4 4 4 4 4 3 3 2 2 2 2 2 1 1 1 0 -0 -0 0 1 1 1 1 0 -0 -1 -1 -1 -1 -2 -3 -5 -6 -6 -5
7 5 4 5 5 5 4 4 4 4 4 4 4 4 4 3 3 3 2 2 2 2 1 1 1 0 0 -0 0 0 0 0 0 0 -0 -1 -1 -1 -2 -2 -3 -4 -6 -6 -5
5 4 3 3 4 4 3 3 2 3 3 4 4 4 4 3 3 3 2 2 2 2 1 0 0 0 0 0 0 0 -0 0 -0 -0 -0 -1 -1 -2 -2 -2 -3 -4 -5 -6 -6
5 4 2 2 2 2 2 1 1 2 2 3 3 3 3 3 3 2 2 1 1 1 1 0 -0 -0 0 1 1 0 0 0 0 -0 -0 -1 -2 -3 -3 -3 -3 -4 -4 -5 -5
6 4 3 2 1 2 1 1 1 1 2 2 3 3 3 3 3 2 1 1 1 1 1 0 -0 -0 0 1 1 1 1 1 0 -0 -0 -1 -2 -3 -4 -4 -4 -4 -4 -4 -4